Regional Weather Roundup
Issued by NWS Jackson, KY

Current Version | Previous Version | Text Only | Print | Product List | Glossary On
Versions: 1 2 3 4 5 6 7 8 9 10 11 12 13 14 15 16 17 18 19 20 21 22 23 24 25 26 27 28 29 30 31 32 33 34 35 36 37 38 39 40 41 42 43 44 45 46 47 48 49 50
000
ASUS43 KJKL 181519
RWRJKL

EAST KENTUCKY HOURLY WEATHER ROUNDUP
NATIONAL WEATHER SERVICE JACKSON KY
1100 AM EDT THU SEP 18 2014

NOTE: "FAIR" INDICATES FEW OR NO CLOUDS BELOW 12,000 FEET WITH
NO SIGNIFICANT WEATHER AND/OR OBSTRUCTIONS TO VISIBILITY.

* THESE REPORTS ARE NOT UNDER NWS QUALITY CONTROL AND MAY NOT
  REPORT WEATHER SUCH AS PRECIPITATION AND FOG.

KYZ079-080-083-085-087-088-110-112-115-119-120-181600
...EASTERN KENTUCKY...

CITY           SKY/WX    TMP DP  RH WIND       PRES   REMARKS
JACKSON        MOSUNNY   64  55  72 CALM      30.07R
LONDON         SUNNY     67  56  67 NE8       30.07R
MONTICELLO*    SUNNY     71  58  63 NE5       30.07R
MIDDLESBORO*   CLOUDY    63  58  85 CALM      30.07R
HARLAN APT*    PTSUNNY   61  59  94 MISG      30.07R
HAZARD APT*    SUNNY     61  61 100 CALM      30.07S
BLACK MTN*       N/A     57  52  82 N1          N/A
PIKEVILLE APT* CLOUDY    57  57 100 CALM      30.08R FOG
BIG SANDY*     CLOUDY    58  57  97 CALM      30.08R
MOREHEAD APT*  SUNNY     66  50  55 VRB7      30.11R
$$

KYZ035-036-041-042-044-050-067-078-099-181600
...CENTRAL KENTUCKY...

CITY           SKY/WX    TMP DP  RH WIND       PRES   REMARKS
MT STERLING*   MOSUNNY   64  52  63 E8        30.10R
FLEMING/MASON* SUNNY     64  52  63 NE6       30.10S
DANVILLE*      CLOUDY    63  54  72 NE6       30.09R
RICHMOND*      MOSUNNY   66  52  59 CALM      30.08R
LEXINGTON      SUNNY     68  53  58 NE6       30.08R
FRANKFORT      SUNNY     64  51  62 NE9       30.08R
$$

KYZ091>093-OHZ055-061-077-WVZ005-015-034-035-042-181600
...SOUTHERN OHIO/WEST VIRGINIA...

CITY           SKY/WX    TMP DP  RH WIND       PRES   REMARKS
COVINGTON      SUNNY     65  50  58 NE9       30.10R
COLUMBUS       SUNNY     68  45  43 E8        30.10R
DAYTON         SUNNY     65  50  58 NE6       30.13R
WILMINGTON     SUNNY     64  50  60 NE9       30.11R
HUNTINGTON     SUNNY     64  54  69 CALM      30.07R
CHARLESTON     PTSUNNY   63  57  81 CALM      30.06R
PINEVILLE*     MOSUNNY   67  60  76 MISG      30.12S
BECKLEY        MOSUNNY   64  50  60 N7        30.09R
BLUEFIELD      CLOUDY    61  53  75 SW5       30.10S
$$

VAZ002-007-008-TNZ017-027-036-066-071-181600
...SOUTHWEST VIRGINIA/EAST TENNESSEE...

CITY           SKY/WX    TMP DP  RH WIND       PRES   REMARKS
WISE*          CLOUDY    59  57  94 N5        30.10R
JONESVILLE*    PTSUNNY   63  59  88 CALM      30.09R
ABINGDON*      CLOUDY    66  59  77 CALM      30.08S
BRISTOL        PTSUNNY   68  57  68 CALM      30.06S
KNOXVILLE      PTSUNNY   71  57  61 VRB5      30.03R
OAK RIDGE      MOSUNNY   72  56  57 VRB3      30.06R
CROSSVILLE     MOSUNNY   69  54  58 NE5       30.07R
NASHVILLE      PTSUNNY   70  57  63 SE3       30.04R
$$

...KEY TO REMARKS...
VSB - VISIBILITY IN MILES
WCI - WIND CHILL INDEX
HX  - HEAT INDEX

$$


USA.gov is the U.S. government's official web portal to all federal, state and local government web resources and services.